EN

Hourly Weather Gogolevka

Today, 9 May, Sunday

Time Temperature Precipitation Wind Pressure Humidity
00:00 +13°C° 0 mm 1 mps 734 mmHg 70%
01:00 +12°C° 0 mm 1 mps 734 mmHg 72%
02:00 +12°C° 0 mm 1 mps 734 mmHg 73%
03:00 +11°C° 0 mm 1 mps 734 mmHg 74%
04:00 +11°C° 0 mm 1 mps 734 mmHg 74%
05:00 +12°C° 0 mm 1 mps 735 mmHg 70%
06:00 +13°C° 0 mm 1 mps 735 mmHg 67%
07:00 +14°C° 0 mm 1 mps 735 mmHg 63%
08:00 +16°C° 0 mm 1 mps 735 mmHg 59%
09:00 +17°C° 0 mm 2 mps 735 mmHg 54%
10:00 +19°C° 0 mm 2 mps 735 mmHg 50%
11:00 +19°C° 0 mm 2 mps 735 mmHg 46%
12:00 +20°C° 0 mm 2 mps 735 mmHg 42%
13:00 +21°C° 0 mm 2 mps 735 mmHg 38%
14:00 +21°C° 0 mm 2 mps 735 mmHg 37%
15:00 +23°C° 0 mm 2 mps 735 mmHg 36%
16:00 +23°C° 0 mm 2 mps 735 mmHg 35%
17:00 +21°C° 0 mm 2 mps 735 mmHg 40%
18:00 +20°C° 0 mm 2 mps 735 mmHg 45%
19:00 +19°C° 0 mm 2 mps 735 mmHg 50%
20:00 +18°C° 0 mm 2 mps 735 mmHg 53%
21:00 +17°C° 0 mm 2 mps 735 mmHg 55%
22:00 +16°C° 0 mm 1 mps 735 mmHg 58%
23:00 +15°C° 0 mm 1 mps 735 mmHg 59%

Tomorrow, 10 May, Monday

Time Temperature Precipitation Wind Pressure Humidity
00:00 +15°C° 0 mm 1 mps 735 mmHg 60%
01:00 +14°C° 0 mm 1 mps 735 mmHg 62%
02:00 +14°C° 0 mm 1 mps 736 mmHg 63%
03:00 +13°C° 0 mm 1 mps 736 mmHg 65%
04:00 +13°C° 0 mm 1 mps 736 mmHg 67%
05:00 +14°C° 0 mm 2 mps 736 mmHg 65%
06:00 +14°C° 0 mm 2 mps 737 mmHg 64%
07:00 +14°C° 0 mm 3 mps 737 mmHg 62%
08:00 +16°C° 0 mm 3 mps 737 mmHg 58%
09:00 +18°C° 0 mm 3 mps 738 mmHg 53%
10:00 +19°C° 0 mm 3 mps 738 mmHg 48%
11:00 +20°C° 0 mm 3 mps 738 mmHg 46%
12:00 +21°C° 0 mm 3 mps 738 mmHg 43%
13:00 +22°C° 0 mm 3 mps 738 mmHg 40%
14:00 +22°C° 0 mm 3 mps 738 mmHg 40%
15:00 +22°C° 0 mm 3 mps 738 mmHg 40%
16:00 +22°C° 0 mm 3 mps 738 mmHg 40%
17:00 +21°C° 0 mm 3 mps 738 mmHg 47%
18:00 +19°C° 0 mm 3 mps 738 mmHg 53%
19:00 +18°C° 0 mm 3 mps 739 mmHg 60%
20:00 +18°C° 0 mm 2 mps 739 mmHg 60%
21:00 +17°C° 0 mm 2 mps 739 mmHg 59%
22:00 +17°C° 0 mm 2 mps 739 mmHg 59%
23:00 +16°C° 0 mm 2 mps 739 mmHg 60%

Day after tomorrow, 11 May, Tuesday

Time Temperature Precipitation Wind Pressure Humidity
00:00 +16°C° 0 mm 2 mps 740 mmHg 61%
01:00 +16°C° 0 mm 2 mps 740 mmHg 62%
02:00 +15°C° 0 mm 2 mps 740 mmHg 63%
03:00 +14°C° 0 mm 2 mps 740 mmHg 63%
04:00 +13°C° 0 mm 2 mps 740 mmHg 64%
05:00 +14°C° 0 mm 2 mps 741 mmHg 61%
06:00 +14°C° 0 mm 2 mps 741 mmHg 57%
07:00 +14°C° 0 mm 3 mps 742 mmHg 54%
08:00 +17°C° 0 mm 3 mps 742 mmHg 52%
09:00 +18°C° 0 mm 3 mps 743 mmHg 49%
10:00 +20°C° 0 mm 3 mps 743 mmHg 47%
11:00 +21°C° 0 mm 3 mps 743 mmHg 44%
12:00 +22°C° 0 mm 3 mps 743 mmHg 41%
13:00 +23°C° 0 mm 2 mps 743 mmHg 38%
14:00 +23°C° 0 mm 2 mps 743 mmHg 37%
15:00 +24°C° 0 mm 3 mps 743 mmHg 36%
16:00 +24°C° 0 mm 3 mps 743 mmHg 35%
17:00 +22°C° 0 mm 3 mps 743 mmHg 40%
18:00 +21°C° 0 mm 2 mps 743 mmHg 45%
19:00 +20°C° 0 mm 2 mps 743 mmHg 51%
20:00 +19°C° 0 mm 2 mps 743 mmHg 54%
21:00 +17°C° 0 mm 2 mps 744 mmHg 57%
22:00 +16°C° 0 mm 2 mps 744 mmHg 60%
23:00 +15°C° 0 mm 2 mps 744 mmHg 60%

12 May, Wednesday

Time Temperature Precipitation Wind Pressure Humidity
00:00 +15°C° 0 mm 1 mps 744 mmHg 59%
01:00 +14°C° 0 mm 1 mps 744 mmHg 59%
02:00 +14°C° 0 mm 1 mps 744 mmHg 57%
03:00 +14°C° 0 mm 1 mps 744 mmHg 55%
04:00 +13°C° 0 mm 1 mps 744 mmHg 53%
05:00 +14°C° 0 mm 1 mps 744 mmHg 51%
06:00 +15°C° 0 mm 1 mps 745 mmHg 49%
07:00 +16°C° 0 mm 1 mps 745 mmHg 47%
08:00 +18°C° 0 mm 1 mps 745 mmHg 44%
09:00 +19°C° 0 mm 2 mps 745 mmHg 41%
10:00 +20°C° 0 mm 2 mps 745 mmHg 37%
11:00 +21°C° 0 mm 2 mps 745 mmHg 35%
12:00 +23°C° 0 mm 2 mps 745 mmHg 33%
13:00 +23°C° 0 mm 2 mps 745 mmHg 31%
14:00 +24°C° 0 mm 2 mps 745 mmHg 31%
15:00 +24°C° 0 mm 2 mps 745 mmHg 30%
16:00 +24°C° 0 mm 1 mps 745 mmHg 30%
17:00 +23°C° 0 mm 1 mps 745 mmHg 35%
18:00 +22°C° 0 mm 1 mps 745 mmHg 39%
19:00 +21°C° 0 mm 1 mps 744 mmHg 44%
20:00 +20°C° 0 mm 1 mps 744 mmHg 45%
21:00 +19°C° 0 mm 1 mps 744 mmHg 46%
22:00 +16°C° 0 mm 0 mps 744 mmHg 48%
23:00 +15°C° 0 mm 0 mps 744 mmHg 49%

13 May, Thursday

Time Temperature Precipitation Wind Pressure Humidity
00:00 +15°C° 0 mm 0 mps 744 mmHg 51%
01:00 +14°C° 0 mm 0 mps 744 mmHg 53%
02:00 +15°C° 0 mm 1 mps 744 mmHg 55%
03:00 +14°C° 0 mm 1 mps 744 mmHg 57%
04:00 +14°C° 0 mm 1 mps 744 mmHg 59%
05:00 +15°C° 0 mm 1 mps 744 mmHg 59%
06:00 +16°C° 0 mm 1 mps 744 mmHg 59%
07:00 +18°C° 0 mm 1 mps 744 mmHg 59%
08:00 +20°C° 0 mm 1 mps 744 mmHg 56%
09:00 +20°C° 0 mm 2 mps 745 mmHg 54%
10:00 +23°C° 0 mm 2 mps 745 mmHg 51%
11:00 +24°C° 0 mm 2 mps 744 mmHg 46%
12:00 +25°C° 0 mm 1 mps 744 mmHg 42%
13:00 +26°C° 0 mm 1 mps 744 mmHg 38%
14:00 +26°C° 0 mm 1 mps 744 mmHg 36%
15:00 +27°C° 0 mm 1 mps 744 mmHg 35%
16:00 +27°C° 0 mm 1 mps 744 mmHg 33%
17:00 +26°C° 0 mm 1 mps 744 mmHg 37%
18:00 +25°C° 0 mm 1 mps 744 mmHg 41%
19:00 +24°C° 0 mm 1 mps 744 mmHg 46%
20:00 +23°C° 0 mm 1 mps 744 mmHg 49%
21:00 +21°C° 0 mm 1 mps 744 mmHg 51%
22:00 +18°C° 0 mm 0 mps 744 mmHg 54%
23:00 +17°C° 0 mm 0 mps 744 mmHg 56%

14 May, Friday

Time Temperature Precipitation Wind Pressure Humidity
00:00 +17°C° 0 mm 0 mps 744 mmHg 58%
01:00 +16°C° 0 mm 0 mps 744 mmHg 60%
02:00 +16°C° 0 mm 0 mps 744 mmHg 61%
03:00 +16°C° 0 mm 0 mps 744 mmHg 62%
04:00 +15°C° 0 mm 0 mps 744 mmHg 64%
05:00 +17°C° 0 mm 0 mps 745 mmHg 61%
06:00 +18°C° 0 mm 0 mps 745 mmHg 58%
07:00 +21°C° 0 mm 1 mps 745 mmHg 56%
08:00 +23°C° 0 mm 1 mps 745 mmHg 51%
09:00 +24°C° 0 mm 1 mps 745 mmHg 47%
10:00 +26°C° 0 mm 2 mps 745 mmHg 43%
11:00 +27°C° 0 mm 2 mps 745 mmHg 40%
12:00 +27°C° 0 mm 2 mps 745 mmHg 37%
13:00 +28°C° 0 mm 2 mps 745 mmHg 35%
14:00 +28°C° 0 mm 2 mps 745 mmHg 34%
15:00 +28°C° 0 mm 2 mps 745 mmHg 34%
16:00 +29°C° 0 mm 2 mps 745 mmHg 33%
17:00 +28°C° 0 mm 2 mps 744 mmHg 38%
18:00 +26°C° 0 mm 2 mps 744 mmHg 43%
19:00 +25°C° 0 mm 2 mps 744 mmHg 47%
20:00 +24°C° 0 mm 2 mps 744 mmHg 48%
21:00 +23°C° 0 mm 2 mps 744 mmHg 49%
22:00 +21°C° 0 mm 2 mps 744 mmHg 50%
23:00 +20°C° 0 mm 2 mps 743 mmHg 51%
Show more